Location: Unspecified
(0.0000°N, 0.0000°E)
Time: 04:27:11
(UTC+00:00)

Vanguard 1 - Pass Details

Date: 14 December 2023
Orbit: 653 x 3826 km, 34.3° (Epoch: 22 February)

Event Time Altitude Azimuth Distance (km) Brightness Sun altitude
Rises 22:22:12 0° 312° (NW) 7,361 14.5 -57.7°
Reaches altitude 10° 22:26:52 10° 315° (NW) 6,583 14.2 -58.4°
Enters shadow 22:32:10 23° 319° (NW) 5,736 13.7 -59.3°
Maximum altitude 22:50:14 72° 37° (NE) 3,850 - -62.0°
Exits shadow 23:08:23 14° 118° (ESE) 5,449 13.8 -64.2°
Drops below altitude 10° 23:09:38 10° 119° (ESE) 5,672 13.9 -64.3°
Sets 23:13:14 0° 120° (ESE) 6,355 14.3 -64.7°
